[[{"header":{"parameterUnit":"m.s-1","parameterCategory":1,"la1":30.2991,"la2":30.254,"lo1":-89.0895,"lo2":-89.0444,"dy":0.0017,"dx":0.0017,"nx":28,"ny":28,"refTime":"2024-10-07T21:00:00:Z","depth":0,"parameterNumber":2,"parameterNumberName":"U-component_of_WINDS"},"data":[0,0,0,0,0,0,0,0,0,0,0,0,0,0,0,0,0,0,0,0,0,0,0,0,0,0,0,0,0,0,0,0,0,0,0,0,0,0,0,0,0,0,0,0,0,0,0,0,0,0,0,0,0,0,0,0,0,0,-0.5269,-0.5269,0,-0.5309,-0.5309,-0.531,-0.533,-0.533,-0.533,-0.533,-0.5372,-0.5373,-0.5374,0,0,0,0,0,0,0,0,0,0,0,0,0,-0.5211,-0.5212,-0.5269,-0.527,-0.527,-0.5309,-0.5309,-0.531,-0.533,-0.533,-0.533,-0.533,-0.5371,-0.5373,-0.5374,0,0,0,0,0,0,0,0,0,0,0,0,0,-0.5242,-0.5212,-0.5269,-0.5285,-0.5287,-0.5309,-0.5309,-0.531,-0.533,-0.533,-0.533,-0.533,-0.5371,-0.5373,-0.5374,-0.5384,0,0,-0.5379,-0.538,0,0,0,0,0,0,0,0,-0.524,-0.5244,-0.5282,-0.5284,-0.5286,-0.5315,-0.5304,-0.5335,-0.533,-0.5314,-0.533,-0.533,-0.5353,-0.5356,-0.5363,-0.5386,-0.5388,-0.5379,-0.538,-0.5381,-0.5382,0,0,0,0,0,0,0,-0.5238,-0.5243,-0.5285,-0.5282,-0.5285,-0.529,-0.5295,-0.531,-0.5333,-0.5315,-0.5317,-0.5321,-0.5354,-0.5362,-0.5364,-0.5388,-0.5379,-0.5381,-0.5382,-0.5382,-0.5421,-0.5421,0,0,0,0,0,0,-0.5233,-0.5241,-0.5284,-0.5286,-0.5263,-0.5291,-0.5296,-0.5305,-0.5332,-0.5337,-0.5321,-0.5322,-0.5359,-0.5363,-0.5366,-0.5379,-0.5381,-0.5383,-0.5384,-0.5421,-0.5421,-0.5421,0,0,0,0,0,0,-0.5232,-0.5237,-0.5282,-0.5264,-0.527,-0.5292,-0.5302,-0.5306,-0.5314,-0.5337,-0.5341,-0.5325,-0.5359,-0.5364,-0.5379,-0.5381,-0.5383,-0.5385,-0.5421,-0.5421,-0.5421,-0.5406,0,0,0,0,0,0,-0.523,-0.5236,-0.524,-0.5264,-0.5271,-0.5294,-0.5302,-0.5307,-0.5317,-0.5318,-0.5342,-0.5346,-0.5359,-0.5377,-0.5381,-0.5383,-0.5386,-0.5421,-0.5421,-0.5421,-0.5406,-0.5405,-0.5404,0,0,0,0,0,-0.5228,-0.5235,-0.524,-0.5245,-0.5276,-0.5294,-0.5298,-0.5314,-0.5317,-0.5321,-0.5335,-0.5345,-0.538,-0.5378,-0.5383,-0.5386,-0.542,-0.5421,-0.5421,-0.5407,-0.5405,-0.5404,0,0,0,0,0,0,-0.5211,-0.5238,-0.5245,-0.5259,-0.5274,-0.5298,-0.5303,-0.5312,-0.5327,-0.5328,-0.5347,-0.5352,-0.5366,-0.5377,-0.5375,-0.5397,-0.5401,-0.5402,-0.5389,-0.5388,-0.5387,-0.5384,-0.5387,0,0,0,0,0,-0.5209,-0.5221,-0.5244,-0.5254,-0.5262,-0.5281,-0.529,-0.53,-0.5317,-0.5324,-0.534,-0.5356,-0.537,-0.538,-0.5394,-0.5408,-0.5413,-0.5412,-0.5411,-0.541,-0.5411,-0.5419,-0.5419,-0.5421,-0.5421,-0.5421,0,0,-0.5205,-0.5221,-0.5228,-0.5251,-0.5265,-0.5277,-0.5287,-0.53,-0.5309,-0.5326,-0.5341,-0.5354,-0.5373,-0.5387,-0.5394,-0.5397,-0.5412,-0.541,-0.541,-0.5411,-0.5419,-0.5419,-0.5419,-0.5421,-0.5421,-0.5421,0,0,-0.5203,-0.5217,-0.5227,-0.524,-0.5259,-0.5272,-0.5274,-0.5297,-0.5305,-0.5321,-0.5334,-0.5346,-0.537,-0.5384,-0.5394,-0.5397,-0.5406,-0.5401,-0.5397,-0.5404,-0.5404,-0.5404,-0.5405,-0.5406,-0.5402,-0.5402,-0.5402,0,-0.5196,-0.5215,-0.5231,-0.5243,-0.5253,-0.5269,-0.5279,-0.5291,-0.5314,-0.5321,-0.5324,-0.5355,-0.5369,-0.5387,-0.5387,-0.5395,-0.5398,-0.5399,-0.5403,-0.5403,-0.5403,-0.5405,-0.5405,-0.5401,-0.5401,-0.5401,-0.5401,0,-0.5205,-0.5218,-0.5224,-0.5246,-0.5257,-0.5268,-0.5286,-0.5295,-0.5304,-0.5317,-0.5332,-0.535,-0.5368,-0.5373,-0.5383,-0.5392,-0.5393,-0.5399,-0.5404,-0.5402,-0.5404,-0.5404,-0.54,-0.54,-0.54,-0.5401,0,0,-0.5195,-0.5225,-0.5227,-0.5237,-0.5259,-0.527,-0.5282,-0.53,-0.5307,-0.5323,-0.5333,-0.5354,-0.5359,-0.537,-0.5381,-0.5388,-0.5389,-0.5393,-0.5394,-0.5392,-0.5401,-0.5397,-0.5397,-0.5395,-0.5396,-0.5396,-0.54,0,-0.5197,-0.5219,-0.5233,-0.5249,-0.5262,-0.5276,-0.5287,-0.5302,-0.5313,-0.5326,-0.5339,-0.5353,-0.5359,-0.5366,-0.5373,-0.5388,-0.5392,-0.5388,-0.5406,-0.5406,-0.5401,-0.5398,-0.5394,-0.5397,-0.54,-0.5401,-0.5401,0,-0.5202,-0.5217,-0.5235,-0.5256,-0.5261,-0.527,-0.5288,-0.5299,-0.5317,-0.5325,-0.5337,-0.5348,-0.5362,-0.5365,-0.5384,-0.5381,-0.5389,-0.5397,-0.5398,-0.54,-0.5404,-0.5401,-0.5398,-0.5399,-0.5402,-0.5402,-0.5402,0,-0.5193,-0.5218,-0.5231,-0.5239,-0.5264,-0.527,-0.5281,-0.5298,-0.5308,-0.5323,-0.533,-0.5346,-0.5355,-0.5368,-0.5383,-0.5384,-0.5401,-0.5405,-0.5408,-0.5408,-0.5411,-0.5411,-0.541,-0.5416,-0.5416,-0.5416,-0.5416,0,-0.5195,-0.5205,-0.5228,-0.5236,-0.5248,-0.5264,-0.5276,-0.5287,-0.5303,-0.5314,-0.5327,-0.5337,-0.5357,-0.5369,-0.5381,-0.5395,-0.5399,-0.5406,-0.5409,-0.5405,-0.5404,-0.5411,-0.5412,-0.5416,-0.5416,-0.5416,-0.5416,0,-0.5187,-0.5202,-0.5218,-0.524,-0.5246,-0.5254,-0.5273,-0.5281,-0.5294,-0.5308,-0.5312,-0.5331,-0.5347,-0.5363,-0.5384,-0.5392,-0.5406,-0.541,-0.54,-0.5402,-0.5404,-0.5403,-0.5407,-0.5409,-0.5413,-0.5413,-0.5413,0,-0.5187,-0.5195,-0.5218,-0.5226,-0.5236,-0.5249,-0.5259,-0.5275,-0.5285,-0.5305,-0.5312,-0.5328,-0.5342,-0.5366,-0.5382,-0.5398,-0.5403,-0.5403,-0.5406,-0.5401,-0.5404,-0.5403,-0.5404,-0.5403,-0.5403,-0.5403,-0.5403,0,-0.5185,-0.5192,-0.5206,-0.5222,-0.5233,-0.5247,-0.5261,-0.5267,-0.5286,-0.5297,-0.5312,-0.5323,-0.5345,-0.5361,-0.5379,-0.539,-0.54,-0.5402,-0.5403,-0.5399,-0.5393,-0.5397,-0.5398,-0.5402,-0.5402,-0.5402,-0.5402,-0.5402,-0.5182,-0.5189,-0.5206,-0.5221,-0.5233,-0.5246,-0.5256,-0.5269,-0.5282,-0.5301,-0.531,-0.5325,-0.5342,-0.5367,-0.5378,-0.5391,-0.5394,-0.5396,-0.5397,-0.5397,-0.5396,-0.5391,-0.5394,-0.5394,-0.5394,-0.5395,-0.5395,0,-0.5181,-0.5192,-0.5206,-0.5225,-0.5236,-0.5244,-0.526,-0.5269,-0.5283,-0.5298,-0.5311,-0.5329,-0.5345,-0.5362,-0.5379,-0.5385,-0.539,-0.5389,-0.5389,-0.5392,-0.5393,-0.539,-0.5385,-0.5385,-0.5385,-0.5385,-0.5385,-0.5385,-0.5182,-0.5196,-0.5205,-0.5225,-0.5236,-0.5252,-0.526,-0.5272,-0.5284,-0.5304,-0.5317,-0.5327,-0.5343,-0.5361,-0.5376,-0.5381,-0.5386,-0.5384,-0.539,-0.5391,-0.5392,-0.5392,-0.539,-0.5385,-0.5385,-0.5388,-0.5388,-0.5388]},{"header":{"parameterUnit":"m.s-1","parameterCategory":1,"la1":30.2991,"la2":30.254,"lo1":-89.0895,"lo2":-89.0444,"dy":0.0017,"dx":0.0017,"nx":28,"ny":28,"refTime":"2024-10-07T21:00:00:Z","depth":0,"parameterNumber":3,"parameterNumberName":"V-component_of_WINDS"},"data":[0,0,0,0,0,0,0,0,0,0,0,0,0,0,0,0,0,0,0,0,0,0,0,0,0,0,0,0,0,0,0,0,0,0,0,0,0,0,0,0,0,0,0,0,0,0,0,0,0,0,0,0,0,0,0,0,0,0,-5.1429,-5.143,0,-5.1538,-5.1539,-5.154,-5.1509,-5.1507,-5.1504,-5.1502,-5.161,-5.1615,-5.162,0,0,0,0,0,0,0,0,0,0,0,0,0,-5.1191,-5.1195,-5.1429,-5.143,-5.1432,-5.1538,-5.1539,-5.1541,-5.1509,-5.1506,-5.1504,-5.1501,-5.1608,-5.1614,-5.162,0,0,0,0,0,0,0,0,0,0,0,0,0,-5.1296,-5.1197,-5.1429,-5.1429,-5.143,-5.1537,-5.1539,-5.1541,-5.151,-5.1506,-5.1503,-5.15,-5.1606,-5.1613,-5.1621,-5.1734,0,0,-5.1643,-5.1647,0,0,0,0,0,0,0,0,-5.129,-5.1305,-5.1427,-5.1429,-5.143,-5.1506,-5.1495,-5.1605,-5.1511,-5.1479,-5.1502,-5.1498,-5.1578,-5.1587,-5.1615,-5.1739,-5.1743,-5.1644,-5.1649,-5.1652,-5.1654,0,0,0,0,0,0,0,-5.1283,-5.13,-5.1472,-5.1429,-5.1431,-5.1422,-5.1434,-5.1516,-5.1546,-5.1482,-5.148,-5.1493,-5.1578,-5.1608,-5.1617,-5.1745,-5.1644,-5.1651,-5.1655,-5.1658,-5.1968,-5.1971,0,0,0,0,0,0,-5.1275,-5.1294,-5.1468,-5.1475,-5.1351,-5.143,-5.1442,-5.1485,-5.1545,-5.1551,-5.1496,-5.1491,-5.1597,-5.1609,-5.1621,-5.1758,-5.1652,-5.1659,-5.1663,-5.1964,-5.1969,-5.1973,0,0,0,0,0,0,-5.127,-5.1291,-5.1464,-5.1384,-5.1406,-5.1437,-5.1486,-5.1489,-5.1519,-5.1556,-5.1561,-5.1521,-5.1595,-5.1611,-5.1706,-5.1761,-5.1662,-5.1669,-5.196,-5.1966,-5.1971,-5.2033,0,0,0,0,0,0,-5.1263,-5.1289,-5.1333,-5.1386,-5.141,-5.1549,-5.1489,-5.1494,-5.1533,-5.1528,-5.1581,-5.1586,-5.1593,-5.1696,-5.1714,-5.177,-5.1675,-5.1955,-5.1962,-5.1969,-5.2026,-5.204,-5.2052,0,0,0,0,0,-5.1255,-5.1345,-5.1335,-5.1357,-5.1466,-5.1552,-5.1566,-5.1573,-5.1537,-5.1581,-5.1605,-5.1585,-5.1752,-5.1706,-5.1726,-5.1785,-5.1951,-5.196,-5.1968,-5.202,-5.2037,-5.2052,0,0,0,0,0,0,-5.1296,-5.1352,-5.1342,-5.1452,-5.1498,-5.1546,-5.1602,-5.1591,-5.1647,-5.1639,-5.1645,-5.1657,-5.1756,-5.178,-5.1727,-5.1898,-5.1847,-5.186,-5.1879,-5.1895,-5.1908,-5.19,-5.1681,0,0,0,0,0,-5.1318,-5.1385,-5.1429,-5.1522,-5.1546,-5.157,-5.1608,-5.161,-5.1657,-5.1676,-5.1706,-5.1752,-5.1815,-5.1856,-5.1916,-5.2029,-5.2041,-5.208,-5.2093,-5.2103,-5.2115,-5.2177,-5.2196,-5.2001,-5.2001,-5.2001,0,0,-5.1364,-5.1403,-5.1444,-5.1531,-5.1567,-5.1635,-5.1587,-5.166,-5.1711,-5.1686,-5.178,-5.1804,-5.1855,-5.1961,-5.2008,-5.1984,-5.2171,-5.2114,-5.2122,-5.2128,-5.2188,-5.2206,-5.2223,-5.2007,-5.2005,-5.2005,0,0,-5.1483,-5.1519,-5.1601,-5.1638,-5.1694,-5.171,-5.1729,-5.1781,-5.1797,-5.1891,-5.1874,-5.1934,-5.2042,-5.208,-5.2113,-5.2248,-5.2232,-5.2267,-5.2335,-5.2396,-5.2412,-5.2425,-5.2474,-5.2492,-5.2278,-5.2279,-5.2279,0,-5.1533,-5.1636,-5.1644,-5.172,-5.1759,-5.1742,-5.1825,-5.186,-5.1932,-5.1959,-5.1931,-5.2068,-5.2101,-5.2215,-5.2249,-5.2276,-5.2299,-5.2261,-5.2409,-5.2423,-5.2436,-5.2483,-5.2501,-5.2283,-5.2282,-5.2282,-5.2281,0,-5.1695,-5.1767,-5.1826,-5.1898,-5.1944,-5.2023,-5.2042,-5.2087,-5.2085,-5.2104,-5.2201,-5.224,-5.2309,-5.2336,-5.2334,-5.2451,-5.2434,-5.2407,-5.2356,-5.2458,-5.2502,-5.252,-5.2288,-5.2287,-5.2286,-5.2285,0,0,-5.1842,-5.1919,-5.194,-5.1974,-5.2035,-5.209,-5.2168,-5.2237,-5.2276,-5.2326,-5.2392,-5.2485,-5.2462,-5.2499,-5.2502,-5.2555,-5.2662,-5.2522,-5.2524,-5.2548,-5.2794,-5.2814,-5.2835,-5.2651,-5.2655,-5.2657,-5.279,0,-5.1966,-5.2106,-5.2116,-5.2242,-5.2309,-5.2295,-5.2363,-5.2408,-5.2428,-5.2487,-5.2508,-5.2575,-5.2538,-5.2561,-5.2613,-5.2638,-5.2711,-5.2628,-5.2713,-5.2716,-5.2701,-5.2858,-5.2879,-5.3003,-5.2807,-5.281,-5.2812,0,-5.213,-5.2188,-5.2321,-5.2375,-5.2403,-5.2465,-5.2529,-5.2586,-5.2636,-5.2647,-5.2691,-5.2686,-5.2766,-5.2712,-5.2823,-5.2766,-5.2801,-5.2818,-5.2823,-5.2832,-5.2771,-5.2872,-5.3042,-5.3061,-5.284,-5.2837,-5.2835,0,-5.2225,-5.2336,-5.2431,-5.2459,-5.2524,-5.2567,-5.2596,-5.2643,-5.2684,-5.274,-5.2767,-5.2831,-5.2866,-5.2916,-5.2928,-5.2887,-5.3039,-5.2986,-5.3051,-5.3051,-5.3083,-5.3081,-5.3263,-5.3105,-5.3105,-5.3104,-5.3104,0,-5.2364,-5.2446,-5.2475,-5.2533,-5.2625,-5.2635,-5.2726,-5.2751,-5.2794,-5.2856,-5.2847,-5.2905,-5.2919,-5.298,-5.299,-5.3081,-5.3096,-5.3107,-5.3109,-5.3109,-5.3107,-5.3132,-5.3124,-5.3109,-5.3108,-5.3107,-5.3106,0,-5.2485,-5.2508,-5.261,-5.2664,-5.2679,-5.2744,-5.279,-5.2845,-5.2865,-5.2944,-5.2963,-5.2993,-5.3065,-5.3083,-5.3168,-5.3175,-5.3282,-5.3275,-5.3266,-5.3266,-5.333,-5.3324,-5.3534,-5.3563,-5.3386,-5.3387,-5.3389,0,-5.2573,-5.2636,-5.2697,-5.2739,-5.2771,-5.2838,-5.2881,-5.2894,-5.2939,-5.3002,-5.305,-5.3121,-5.3179,-5.3294,-5.3323,-5.3388,-5.3383,-5.3452,-5.3393,-5.3391,-5.3385,-5.3382,-5.3389,-5.3464,-5.3465,-5.3467,-5.3468,0,-5.2725,-5.2734,-5.2797,-5.2865,-5.2916,-5.297,-5.302,-5.3055,-5.3075,-5.3126,-5.32,-5.3245,-5.3333,-5.3404,-5.347,-5.3498,-5.3487,-5.3487,-5.3506,-5.3506,-5.3498,-5.3505,-5.3298,-5.3482,-5.3481,-5.348,-5.3479,-5.3478,-5.2833,-5.289,-5.2942,-5.3013,-5.3053,-5.3101,-5.3157,-5.3185,-5.3247,-5.3321,-5.3325,-5.3406,-5.3455,-5.3543,-5.3576,-5.3639,-5.3618,-5.3644,-5.3651,-5.3658,-5.3664,-5.3488,-5.3651,-5.365,-5.365,-5.365,-5.3649,0,-5.2986,-5.302,-5.3085,-5.3158,-5.3214,-5.32,-5.3256,-5.3303,-5.3375,-5.3423,-5.3481,-5.3567,-5.3636,-5.3671,-5.374,-5.3784,-5.3781,-5.3801,-5.3798,-5.3805,-5.3679,-5.3656,-5.3803,-5.3803,-5.3803,-5.3803,-5.3803,-5.3803,-5.3072,-5.3168,-5.3183,-5.3298,-5.3331,-5.3412,-5.3445,-5.349,-5.3528,-5.3626,-5.3684,-5.3707,-5.375,-5.3822,-5.3885,-5.3893,-5.3919,-5.3943,-5.3949,-5.383,-5.3814,-5.3799,-5.3778,-5.3948,-5.3949,-5.4071,-5.4072,-5.4073]}]]